#datint,netname,site,siteID,timestamp,IntT,BattV,AirT2,AirT,AirT_Avg,AirT_Max,AirT_Min,RH_Avg,RH_Max,RH_Min,EA_Avg,Td_Avg,Td_Max,Td_Min,WindS_Smp,WindS_Avg,WindD_Avg,WindD_SD,WindS_Max,ETo,ETr,SoilT4,SoilT8,SoilVWC8,SolarW_Avg,wetstate_Avg,wetT_Avg,Precip_accum,Precip_WPG,Precip_TB
15min,AgWx,beryljct,423,29FEB2020:00:00:00,27.7,12.85,29.3,28.3,26.9,28.3,26.1,82,86,78,0.410,22.2,22.8,21.7,1.578,1.6,234,23,3.2,-0.00013,-0.00016,36.8,36.9,21,0,.,.,9.37,0.00,0.00
15min,AgWx,beryljct,423,29FEB2020:00:15:00,27.5,12.83,31.9,28.9,28.5,29.4,27.2,75,79,72,0.402,21.6,22.9,20.8,1.315,1.7,249,11,3.2,-0.00011,-0.00014,36.7,36.9,21,0,.,.,9.37,0.00,0.00
15min,AgWx,beryljct,423,29FEB2020:00:30:00,27.5,12.83,26.1,27.0,29.4,32.6,27.0,71,78,62,0.386,21.2,22.6,18.9,0.329,0.8,174,56,3.3,-0.00016,-0.00023,36.6,36.9,21,0,.,.,9.37,0.00,0.00
15min,AgWx,beryljct,423,29FEB2020:00:45:00,27.3,12.81,26.3,26.1,26.8,27.8,26.1,79,81,77,0.390,21.3,22.1,20.2,2.762,2.0,127,37,3.2,-0.00011,-0.00013,36.5,36.9,21,0,.,.,9.37,0.00,0.00
15min,AgWx,beryljct,423,29FEB2020:01:00:00,27.0,12.81,25.5,25.3,26.6,27.7,25.3,80,83,76,0.386,21.1,22.2,20.2,1.271,1.7,201,13,3.6,-0.00011,-0.00014,36.4,36.9,21,0,.,.,9.37,0.00,0.00
15min,AgWx,beryljct,423,29FEB2020:01:15:00,26.5,12.81,25.2,24.8,25.5,26.1,24.6,83,86,80,0.390,21.0,21.5,19.9,1.337,1.3,138,36,2.5,-0.00013,-0.00017,36.3,36.8,21,0,.,.,9.37,0.00,0.00
15min,AgWx,beryljct,423,29FEB2020:01:30:00,26.0,12.78,24.8,24.3,24.4,25.0,23.9,89,90,86,0.397,21.5,22.4,21.0,1.184,1.1,37,43,2.6,-0.00015,-0.00020,36.2,36.8,21,0,.,.,9.38,0.01,0.00
15min,AgWx,beryljct,423,29FEB2020:01:45:00,25.6,12.78,25.6,24.7,24.9,25.9,24.3,87,89,85,0.389,21.5,22.3,20.8,0.702,1.1,295,0.1,1.8,-0.00014,-0.00020,36.2,36.8,21,0,.,.,9.38,0.00,0.00
15min,AgWx,beryljct,423,29FEB2020:02:00:00,25.4,12.78,24.7,24.4,25.6,26.8,24.4,85,87,82,0.381,21.6,22.7,20.1,0.307,1.4,325,11,3.2,-0.00013,-0.00017,36.1,36.8,21,0,.,.,9.37,0.00,0.00
15min,AgWx,beryljct,423,29FEB2020:02:15:00,25.4,12.76,28.7,26.8,26.0,27.8,24.2,84,88,77,0.395,21.9,23.1,20.2,0,1.6,257,36,3.6,-0.00013,-0.00016,36.0,36.8,21,0,.,.,9.37,0.00,0.00
15min,AgWx,beryljct,423,29FEB2020:02:30:00,25.4,12.76,24.7,24.9,25.9,27.2,24.9,81,84,79,0.370,20.9,21.9,19.9,3.705,3.0,188,11,5.2,-0.00007,-0.00008,35.9,36.8,21,0,.,.,9.38,0.00,0.00
15min,AgWx,beryljct,423,29FEB2020:02:45:00,25.4,12.76,24.2,24.1,24.3,24.8,24.1,85,87,81,0.382,20.5,21.0,19.9,2.609,3.0,194,6.1,4.0,-0.00008,-0.00009,35.9,36.8,21,0,.,.,9.38,0.00,0.00
15min,AgWx,beryljct,423,29FEB2020:03:00:00,25.4,12.75,24.9,24.6,24.2,24.8,23.7,86,88,84,0.376,20.8,21.4,20.3,2.17,3.0,162,15,5.0,-0.00008,-0.00009,35.8,36.8,21,0,.,.,9.38,0.00,0.00
15min,AgWx,beryljct,423,29FEB2020:03:15:00,25.3,12.73,24.3,24.4,24.9,25.2,24.4,83,84,82,0.371,20.4,20.7,19.8,0,2.4,161,7.5,3.8,-0.00009,-0.00011,35.7,36.7,21,0,.,.,9.38,0.00,0.00
15min,AgWx,beryljct,423,29FEB2020:03:30:00,25.2,12.72,25.8,25.5,24.9,25.5,24.2,85,87,83,0.396,21.0,21.7,19.9,2.017,1.5,276,26,3.0,-0.00013,-0.00016,35.6,36.7,21,0,.,.,9.38,0.00,0.00
15min,AgWx,beryljct,423,29FEB2020:03:45:00,25.3,12.73,28.6,27.7,26.9,29.1,25.4,79,85,73,0.383,21.3,22.8,20.5,0.022,2.2,316,8.3,3.9,-0.00009,-0.00011,35.6,36.7,21,0,.,.,9.38,0.00,0.00
15min,AgWx,beryljct,423,29FEB2020:04:00:00,25.4,12.72,25.9,26.4,28.0,29.2,26.4,75,77,71,0.374,21.1,21.6,20.1,3.508,1.8,332,12,3.9,-0.00011,-0.00013,35.5,36.7,21,0,.,.,9.38,0.00,0.00
15min,AgWx,beryljct,423,29FEB2020:04:15:00,25.4,12.72,26.7,25.8,25.6,26.6,24.8,82,84,77,0.387,20.7,22.0,20.1,3.486,3.6,323,9.0,4.8,-0.00006,-0.00006,35.4,36.6,21,0,.,.,9.38,0.00,0.00
15min,AgWx,beryljct,423,29FEB2020:04:30:00,25.3,12.71,25.5,25.3,25.1,26.0,24.3,83,85,81,0.382,20.8,21.7,20.1,0,1.4,331,32,4.3,-0.00013,-0.00016,35.4,36.6,21,0,.,.,9.38,0.00,0.00
15min,AgWx,beryljct,423,29FEB2020:04:45:00,24.9,12.7,26.2,25.5,25.5,26.1,24.9,83,85,81,0.389,20.9,21.4,20.2,0.767,0.6,134,38,2.1,-0.00017,-0.00025,35.3,36.6,21,0,.,.,9.38,0.00,0.00
15min,AgWx,beryljct,423,29FEB2020:05:00:00,25.0,12.69,25.8,25.2,25.0,25.8,24.6,84,86,82,0.395,20.9,21.5,20.0,1.666,1.9,157,15,3.4,-0.00011,-0.00014,35.2,36.6,21,0,.,.,9.38,0.00,0.00
15min,AgWx,beryljct,423,29FEB2020:05:15:00,25.3,12.68,25.8,25.4,25.2,25.5,24.9,86,87,84,0.402,21.6,22.1,20.9,2.74,1.9,168,21,3.0,-0.00011,-0.00014,35.2,36.6,21,0,.,.,9.38,0.00,0.00
15min,AgWx,beryljct,423,29FEB2020:05:30:00,25.6,12.69,26.0,25.6,25.5,25.8,25.4,87,89,86,0.402,22.3,22.7,21.8,2.784,2.7,159,10,3.5,-0.00009,-0.00011,35.1,36.5,21,0,.,.,9.38,0.00,0.00
15min,AgWx,beryljct,423,29FEB2020:05:45:00,25.9,12.68,26.6,26.1,25.8,26.1,25.6,85,86,83,0.397,21.9,22.2,21.6,2.74,1.3,168,3.9,3.0,-0.00014,-0.00018,35.1,36.5,21,0,.,.,9.38,0.00,0.00
15min,AgWx,beryljct,423,29FEB2020:06:00:00,26.2,12.68,28.9,27.5,26.8,27.6,26.1,82,84,80,0.413,22.1,22.5,21.5,2.718,1.9,227,46,4.1,-0.00011,-0.00014,35.0,36.5,21,0,.,.,9.38,0.00,0.00
15min,AgWx,beryljct,423,29FEB2020:06:15:00,26.6,12.67,28.6,27.7,28.3,28.9,27.6,77,81,75,0.410,22.1,22.8,21.6,1.03,2.2,273,23,3.7,-0.00009,-0.00011,35.0,36.5,21,0,.,.,9.38,0.00,0.00
15min,AgWx,beryljct,423,29FEB2020:06:30:00,26.5,12.66,27.0,26.6,26.7,27.9,26.1,82,85,79,0.398,22.0,22.8,21.1,0.592,0.4,350,30,2.0,0.00002,0.00003,34.9,36.4,21,0,.,.,9.38,0.00,0.00
15min,AgWx,beryljct,423,29FEB2020:06:45:00,26.2,12.66,26.0,25.5,26.3,26.9,25.3,82,85,81,0.398,21.6,22.0,20.7,1.271,0.7,351,19,2.6,0.00002,0.00004,34.9,36.4,21,0,.,.,9.38,0.00,0.00
15min,AgWx,beryljct,423,29FEB2020:07:00:00,25.9,12.67,25.8,25.3,25.2,25.6,24.8,87,88,85,0.402,21.8,22.3,21.1,0,0.8,324,0.1,2.5,0.00002,0.00004,34.8,36.4,21,1,.,.,9.38,0.00,0.00
15min,AgWx,beryljct,423,29FEB2020:07:15:00,25.7,12.66,27.6,26.5,25.8,26.5,25.3,86,87,84,0.410,22.1,22.5,21.8,0,0.0,323,0.2,0.7,0.00002,0.00003,34.8,36.4,21,5,.,.,9.38,0.00,0.00
15min,AgWx,beryljct,423,29FEB2020:07:30:00,25.8,12.7,26.0,26.2,26.9,27.5,25.8,81,85,79,0.408,21.8,22.6,21.0,0.811,0.7,56,44,1.5,0.00010,0.00012,34.7,36.3,21,18,.,.,9.38,0.00,0.00
15min,AgWx,beryljct,423,29FEB2020:07:45:00,25.8,12.75,28.2,28.6,27.3,28.6,25.8,81,86,75,0.399,22.2,23.1,21.7,0.723,0.8,189,37,2.7,0.00017,0.00020,34.7,36.3,21,36,.,.,9.38,0.00,0.00
15min,AgWx,beryljct,423,29FEB2020:08:00:00,26.5,12.87,29.8,29.5,28.9,29.6,28.4,76,78,72,0.417,22.2,23.0,21.3,2.653,2.2,314,44,3.5,0.00040,0.00048,34.6,36.3,21,95,.,.,9.38,0.00,0.00
15min,AgWx,beryljct,423,29FEB2020:08:15:00,28.0,13.14,30.3,30.3,29.6,30.3,29.2,79,84,76,0.449,24.0,25.1,22.7,2.28,1.9,353,17,4.3,0.00060,0.00068,34.6,36.3,21,171,.,.,9.38,0.00,0.00
15min,AgWx,beryljct,423,29FEB2020:08:30:00,29.6,13.2,30.9,30.6,30.2,30.6,29.9,80,82,79,0.469,24.9,25.8,24.3,0.965,1.5,20,19,2.5,0.00057,0.00064,34.5,36.3,21,148,.,.,9.38,0.00,0.00
15min,AgWx,beryljct,423,29FEB2020:08:45:00,30.8,13.23,31.5,31.1,30.7,31.1,30.5,83,86,81,0.500,26.3,27.3,25.5,3.99,2.5,340,12,4.3,0.00055,0.00063,34.5,36.2,21,133,.,.,9.38,0.00,0.00
15min,AgWx,beryljct,423,29FEB2020:09:00:00,31.9,14.76,33.3,32.6,31.6,32.6,30.9,84,85,81,0.510,27.2,28.0,26.7,2.696,3.8,327,5.4,4.9,0.00097,0.00109,34.5,36.2,21,287,.,.,9.38,0.00,0.00
15min,AgWx,beryljct,423,29FEB2020:09:15:00,35.0,14.64,36.5,36.0,34.6,36.2,32.6,78,82,74,0.530,28.4,29.9,27.6,2.214,2.2,3.7,27,3.1,0.00166,0.00183,34.4,36.2,21,460,.,.,9.38,0.00,0.00
15min,AgWx,beryljct,423,29FEB2020:09:30:00,37.9,14.63,37.9,37.6,37.0,37.6,36.1,74,77,70,0.574,29.5,30.6,28.2,1.008,1.7,74,26,3.4,0.00110,0.00123,34.4,36.2,21,250,.,.,9.37,0.00,0.00
15min,AgWx,beryljct,423,29FEB2020:09:45:00,39.9,14.62,39.1,39.2,38.4,39.3,37.6,70,76,66,0.540,29.5,30.7,28.5,0,0.6,64,17,1.9,0.00150,0.00162,34.4,36.2,21,343,.,.,9.38,0.00,0.00
15min,AgWx,beryljct,423,29FEB2020:10:00:00,41.6,14.61,40.3,39.8,39.4,39.9,39.1,68,69,66,0.563,29.6,30.3,28.7,1.271,0.7,359,9.9,2.3,0.00145,0.00158,34.3,36.1,21,319,.,.,9.37,0.00,0.00
15min,AgWx,beryljct,423,29FEB2020:10:15:00,43.1,14.54,42.4,42.1,41.1,42.2,39.8,66,69,61,0.573,30.6,31.5,29.5,1.381,1.3,345,8.8,2.0,0.00172,0.00189,34.3,36.1,21,374,.,.,9.38,0.00,0.00
15min,AgWx,beryljct,423,29FEB2020:10:30:00,45.4,14.5,46.4,46.3,44.2,46.8,42.1,58,64,49,0.519,30.2,31.1,28.0,0.417,0.4,341,31,1.8,0.00231,0.00249,34.3,36.1,21,485,.,.,9.37,0.00,0.00
15min,AgWx,beryljct,423,29FEB2020:10:45:00,48.3,14.43,48.9,48.4,47.5,48.6,46.3,49,52,46,0.597,29.5,31.5,28.1,4.494,2.9,132,14,5.2,0.00300,0.00342,34.3,36.0,21,609,.,.,9.37,0.00,0.00
15min,AgWx,beryljct,423,29FEB2020:11:00:00,50.8,14.42,51.0,50.9,49.7,50.9,48.5,46,52,42,0.553,29.9,31.7,28.1,3.902,4.8,121,14,6.5,0.00312,0.00370,34.2,36.0,21,597,.,.,9.36,0.00,0.00
15min,AgWx,beryljct,423,29FEB2020:11:15:00,52.7,14.43,52.9,53.6,53.1,53.9,50.9,34,44,30,0.454,25.5,29.7,22.9,14.75,8.7,170,18,14.8,0.00338,0.00440,34.2,36.0,21,546,.,.,9.36,0.00,0.00
15min,AgWx,beryljct,423,29FEB2020:11:30:00,54.1,14.07,54.7,54.9,54.0,55.0,53.3,32,34,30,0.461,24.9,26.7,22.8,10.83,11.1,171,11,14.6,0.00388,0.00513,34.2,36.0,21,634,.,.,9.36,0.00,0.00
15min,AgWx,beryljct,423,29FEB2020:11:45:00,55.5,13.93,55.9,55.3,54.9,55.5,54.4,31,33,29,0.456,24.5,26.9,22.6,14.67,11.1,190,18,16.1,0.00402,0.00533,34.2,35.9,21,643,.,.,9.36,0.00,0.00
15min,AgWx,beryljct,423,29FEB2020:12:00:00,56.6,13.9,55.9,55.8,55.6,56.2,54.8,30,33,29,0.436,24.9,26.9,23.2,9.29,12.5,200,11,16.7,0.00464,0.00609,34.2,35.9,21,782,.,.,9.35,0.00,0.00
15min,AgWx,beryljct,423,29FEB2020:12:15:00,57.7,13.9,55.6,55.9,56.1,56.9,55.6,29,31,26,0.416,23.9,26.9,21.7,16.33,11.9,198,18,17.4,0.00448,0.00593,34.2,35.9,21,723,.,.,9.35,0.00,0.00
15min,AgWx,beryljct,423,29FEB2020:12:30:00,58.3,13.87,56.2,57.4,56.2,57.5,55.5,28,30,26,0.482,23.7,26.6,21.3,14.05,13.2,203,11,18.3,0.00464,0.00620,34.4,35.9,21,755,.,.,9.35,0.00,0.00
15min,AgWx,beryljct,423,29FEB2020:12:45:00,59.2,13.87,55.5,57.0,57.2,57.9,56.7,28,31,26,0.441,24.3,27.6,22.2,14.18,14.1,210,12,19.5,0.00497,0.00663,34.5,35.9,21,800,.,.,9.34,0.00,0.00
15min,AgWx,beryljct,423,29FEB2020:13:00:00,59.2,13.86,55.8,55.5,56.1,57.0,55.4,29,30,27,0.427,24.0,25.6,22.5,14.45,15.3,200,11,20.3,0.00379,0.00540,34.8,35.9,21,486,.,.,9.34,0.00,0.00
15min,AgWx,beryljct,423,29FEB2020:13:15:00,58.5,13.93,55.7,55.4,55.4,55.7,55.1,29,31,28,0.423,23.6,25.3,22.2,12.98,13.7,192,9.2,17.4,0.00353,0.00502,35.1,35.8,21,453,.,.,9.34,0.00,0.00
15min,AgWx,beryljct,423,29FEB2020:13:30:00,58.2,13.93,55.0,55.6,55.8,56.2,55.5,29,31,27,0.434,23.9,26.3,22.5,14.29,13.2,199,14,17.3,0.00356,0.00503,35.4,35.8,21,469,.,.,9.34,0.00,0.00
15min,AgWx,beryljct,423,29FEB2020:13:45:00,57.8,13.9,54.8,55.0,55.1,55.4,55.0,29,31,27,0.431,23.4,24.8,22.0,11.9,11.9,196,11,16.5,0.00296,0.00430,35.7,35.8,21,328,.,.,9.33,0.00,0.00
15min,AgWx,beryljct,423,29FEB2020:14:00:00,57.2,13.93,54.9,55.0,54.9,55.2,54.6,28,31,27,0.404,22.8,25.3,21.4,10.74,11.2,199,7.5,17.8,0.00300,0.00429,36.0,35.8,21,363,.,.,9.33,0.00,0.00
15min,AgWx,beryljct,423,29FEB2020:14:15:00,56.9,13.95,54.2,54.3,54.7,55.1,54.3,29,32,27,0.418,23.4,25.2,22.0,10.61,12.0,188,11,15.6,0.00272,0.00403,36.2,35.8,21,274,.,.,9.33,0.00,0.00
15min,AgWx,beryljct,423,29FEB2020:14:30:00,56.5,13.94,54.4,54.5,54.3,54.6,54.1,30,32,28,0.443,23.8,25.5,22.0,12.91,11.2,188,12,14.2,0.00255,0.00376,36.5,35.9,21,260,.,.,9.33,0.00,0.00
15min,AgWx,beryljct,423,29FEB2020:14:45:00,56.2,13.93,54.6,54.1,54.2,54.6,53.7,31,32,29,0.431,23.9,25.3,22.7,12.04,14.5,189,9.3,19.6,0.00292,0.00435,36.7,35.9,21,329,.,.,9.33,0.00,0.00
15min,AgWx,beryljct,423,29FEB2020:15:00:00,56.0,13.94,53.9,53.7,53.8,54.3,53.6,31,32,29,0.440,23.7,25.2,22.0,14.14,15.6,190,7.2,21.2,0.00281,0.00429,36.9,35.9,21,286,.,.,9.33,0.00,0.00
15min,AgWx,beryljct,423,29FEB2020:15:15:00,56.0,13.95,54.9,54.5,54.3,54.7,53.7,32,34,31,0.464,25.2,26.9,23.7,15.28,14.8,176,9.7,18.5,0.00300,0.00443,37.1,35.9,21,406,.,.,9.33,0.00,0.00
15min,AgWx,beryljct,423,29FEB2020:15:30:00,56.3,13.96,54.4,54.8,54.4,54.9,54.0,31,33,30,0.439,24.6,26.2,23.7,16.44,16.2,187,7.4,20.6,0.00299,0.00452,37.3,36.0,21,379,.,.,9.33,0.00,0.00
15min,AgWx,beryljct,423,29FEB2020:15:45:00,56.3,13.93,54.9,54.5,54.3,54.7,54.0,30,32,29,0.433,23.7,25.2,22.4,14.64,15.4,186,8.5,20.0,0.00267,0.00415,37.5,36.0,21,296,.,.,9.33,0.00,0.00
15min,AgWx,beryljct,423,29FEB2020:16:00:00,56.0,13.97,53.0,53.0,53.7,54.8,52.8,29,31,27,0.395,22.2,24.7,20.2,20.67,17.8,215,11,25.7,0.00263,0.00423,37.6,36.1,21,243,.,.,9.34,0.00,0.00
15min,AgWx,beryljct,423,29FEB2020:16:15:00,56.0,13.92,54.0,54.0,53.8,54.3,53.0,29,30,27,0.399,22.0,23.1,21.0,18.9,19.5,211,10,24.7,0.00350,0.00524,37.7,36.1,21,466,.,.,9.34,0.00,0.00
15min,AgWx,beryljct,423,29FEB2020:16:30:00,55.9,13.93,52.7,52.9,53.2,54.2,52.5,28,30,27,0.390,21.2,22.5,20.2,18.06,17.1,195,7.5,21.1,0.00269,0.00426,37.9,36.2,21,284,.,.,9.34,0.00,0.00
15min,AgWx,beryljct,423,29FEB2020:16:45:00,55.2,13.95,52.0,52.0,52.3,53.0,51.9,29,31,27,0.396,20.7,22.3,19.6,11.07,16.7,197,7.6,21.4,0.00214,0.00363,38.0,36.2,21,163,.,.,9.34,0.00,0.00
15min,AgWx,beryljct,423,29FEB2020:17:00:00,54.3,13.99,52.4,52.2,51.9,52.2,51.7,30,32,28,0.404,21.6,22.9,20.1,13.9,15.1,209,8.2,19.9,0.00195,0.00330,38.1,36.3,21,159,.,.,9.34,0.00,0.00
15min,AgWx,beryljct,423,29FEB2020:17:15:00,54.5,13.93,53.3,53.2,53.2,53.9,52.2,29,32,27,0.399,22.1,23.7,20.0,17.82,14.6,213,8.0,19.4,0.00263,0.00405,38.2,36.3,21,321,.,.,9.34,0.00,0.00
15min,AgWx,beryljct,423,29FEB2020:17:30:00,55.0,13.92,52.5,52.6,53.1,53.5,52.6,29,31,28,0.403,21.5,23.1,20.6,17.52,15.1,200,10,20.5,0.00104,0.00119,38.3,36.4,21,244,.,.,9.34,0.00,0.00
15min,AgWx,beryljct,423,29FEB2020:17:45:00,54.6,13.27,51.0,50.9,51.7,52.5,50.9,30,31,29,0.374,21.1,22.4,20.1,17.63,17.1,187,8.0,22.0,0.00092,0.00105,38.4,36.5,21,150,.,.,9.33,0.00,0.00
15min,AgWx,beryljct,423,29FEB2020:18:00:00,53.1,13.2,49.1,49.4,50.2,51.0,49.4,31,33,29,0.394,21.0,21.5,20.2,11.11,14.5,189,7.0,19.5,0.00073,0.00085,38.5,36.5,21,54,.,.,9.34,0.01,0.00
15min,AgWx,beryljct,423,29FEB2020:18:15:00,51.3,13.13,48.5,48.3,48.8,49.5,48.1,33,35,32,0.388,21.3,21.9,20.7,10.35,10.4,193,6.6,14.5,0.00054,0.00066,38.5,36.5,21,19,.,.,9.34,0.00,0.00
15min,AgWx,beryljct,423,29FEB2020:18:30:00,49.4,13.09,46.3,46.2,46.9,48.4,46.2,37,38,34,0.401,21.8,22.2,21.0,9.6,7.9,182,7.1,11.3,0.00039,0.00050,38.5,36.6,21,6,.,.,9.34,0.00,0.00
15min,AgWx,beryljct,423,29FEB2020:18:45:00,47.6,13.07,43.9,44.3,45.3,46.4,44.3,40,42,37,0.412,22.2,22.8,21.5,6.27,7.5,169,8.6,12.5,0.00033,0.00042,38.5,36.7,21,2,.,.,9.34,0.00,0.00
15min,AgWx,beryljct,423,29FEB2020:19:00:00,45.8,13.03,41.9,41.9,43.0,44.3,41.9,45,48,42,0.431,23.2,23.7,22.5,6.16,6.1,145,8.7,7.6,0.00021,0.00029,38.6,36.7,21,0,.,.,9.35,0.00,0.00
15min,AgWx,beryljct,423,29FEB2020:19:15:00,44.3,13.03,44.4,43.6,42.7,43.6,41.9,46,48,45,0.434,23.5,23.7,23.3,9.95,8.6,129,6.1,11.0,0.00029,0.00036,38.5,36.8,21,0,.,.,9.35,0.00,0.00
15min,AgWx,beryljct,423,29FEB2020:19:30:00,43.5,13.01,42.3,42.3,42.6,43.7,41.6,47,49,45,0.439,23.8,24.1,23.5,4.187,5.7,169,18,10.1,0.00018,0.00025,38.5,36.8,21,0,.,.,9.35,0.00,0.00
15min,AgWx,beryljct,423,29FEB2020:19:45:00,43.2,13,45.9,45.6,43.7,45.8,41.6,44,51,39,0.413,23.3,24.6,22.1,3.135,4.6,193,41,9.8,0.00015,0.00022,38.4,36.9,21,0,.,.,9.35,0.00,0.00
15min,AgWx,beryljct,423,29FEB2020:20:00:00,43.7,12.99,46.9,46.7,46.3,46.8,45.6,38,40,37,0.403,22.2,22.7,21.9,4.867,3.6,231,34,7.6,0.00012,0.00019,38.3,36.9,21,0,.,.,9.34,0.00,0.00
15min,AgWx,beryljct,423,29FEB2020:20:15:00,44.1,12.99,46.6,46.6,46.2,46.9,45.5,39,40,37,0.410,22.5,23.0,21.9,4.735,3.4,253,32,7.4,0.00009,0.00016,38.2,36.9,21,0,.,.,9.35,0.00,0.00
15min,AgWx,beryljct,423,29FEB2020:20:30:00,44.3,12.98,46.3,46.3,46.0,46.7,45.3,39,41,37,0.423,22.7,23.2,22.1,5.305,3.6,227,23,10.2,0.00011,0.00018,38.1,37.0,21,0,.,.,9.35,0.00,0.00
15min,AgWx,beryljct,423,29FEB2020:20:45:00,44.6,12.97,46.0,45.8,46.1,46.4,45.8,41,42,40,0.441,23.8,24.1,23.1,10.85,9.3,192,8.9,13.0,0.00038,0.00047,38.0,37.0,21,0,.,.,9.35,0.00,0.00
15min,AgWx,beryljct,423,29FEB2020:21:00:00,44.9,12.96,46.0,45.7,45.5,45.8,45.3,43,44,42,0.442,24.3,24.6,23.9,13.46,10.6,189,7.3,18.0,0.00039,0.00048,37.9,37.1,21,0,.,.,9.35,0.00,0.00
15min,AgWx,beryljct,423,29FEB2020:21:15:00,45.3,12.96,46.2,46.3,46.1,46.6,45.7,42,43,40,0.443,24.1,24.4,23.8,10,12.4,192,6.6,16.0,0.00045,0.00054,37.8,37.1,21,0,.,.,9.35,0.00,0.00
15min,AgWx,beryljct,423,29FEB2020:21:30:00,45.7,12.94,47.1,46.7,46.6,46.9,46.2,41,42,40,0.444,24.2,24.4,24.0,14.6,13.5,193,6.6,17.7,0.00049,0.00058,37.8,37.1,21,0,.,.,9.35,0.00,0.00
15min,AgWx,beryljct,423,29FEB2020:21:45:00,46.0,12.95,46.8,46.7,46.8,47.0,46.6,41,41,40,0.443,24.2,24.4,24.0,13.94,14.3,195,8.3,18.5,0.00051,0.00060,37.7,37.1,21,0,.,.,9.35,0.00,0.00
15min,AgWx,beryljct,423,29FEB2020:22:00:00,45.9,12.94,45.5,45.5,46.0,46.7,45.4,42,43,41,0.446,24.4,24.6,24.1,10.11,11.6,198,8.1,16.3,0.00043,0.00052,37.6,37.2,21,0,.,.,9.35,0.00,0.00
15min,AgWx,beryljct,423,29FEB2020:22:15:00,45.4,12.92,45.1,44.8,44.9,45.6,44.5,44,45,43,0.452,24.6,24.8,24.3,9.21,9.2,204,6.3,12.1,0.00034,0.00043,37.6,37.2,21,0,.,.,9.35,0.00,0.00
15min,AgWx,beryljct,423,29FEB2020:22:30:00,45.0,12.92,44.7,45.0,44.9,45.1,44.7,45,46,44,0.462,24.9,25.2,24.5,7.914,8.5,198,7.7,11.6,0.00031,0.00040,37.5,37.2,21,0,.,.,9.35,0.00,0.00
15min,AgWx,beryljct,423,29FEB2020:22:45:00,45.2,12.92,46.3,46.2,45.7,46.2,45.0,44,46,43,0.455,25.0,25.3,24.8,13.22,12.2,196,7.7,17.9,0.00042,0.00050,37.4,37.2,21,0,.,.,9.35,0.00,0.00
15min,AgWx,beryljct,423,29FEB2020:23:00:00,45.6,12.91,46.6,46.2,46.2,46.4,46.1,43,43,42,0.458,25.0,25.2,24.7,16.57,13.6,192,6.9,16.9,0.00047,0.00055,37.4,37.2,21,0,.,.,9.35,0.00,0.00
15min,AgWx,beryljct,423,29FEB2020:23:15:00,46.0,12.91,46.4,46.4,46.3,46.5,46.2,43,43,42,0.456,24.9,25.0,24.7,15.1,13.8,192,5.9,17.3,0.00048,0.00056,37.3,37.2,21,0,.,.,9.35,0.00,0.00
15min,AgWx,beryljct,423,29FEB2020:23:30:00,46.2,12.89,46.2,46.3,46.4,46.7,46.3,42,43,41,0.451,24.6,25.0,24.4,13.02,13.5,195,7.1,18.2,0.00048,0.00056,37.3,37.2,21,0,.,.,9.36,0.01,0.00
15min,AgWx,beryljct,423,29FEB2020:23:45:00,46.1,12.89,46.2,45.6,46.0,46.3,45.5,43,43,42,0.449,24.5,24.7,24.3,14.6,13.2,199,6.2,16.4,0.00046,0.00055,37.2,37.2,21,0,.,.,9.36,0.00,0.00
15min,AgWx,bigpiney,439,29FEB2020:00:00:00,12.2,12.66,12.6,12.2,12.1,12.4,11.8,90,91,90,0.239,9.8,10.2,9.3,1.644,1.9,297,14,2.6,-0.00009,-0.00011,29.3,30.3,11,0,0,0.0,5.83,0.00,0.00
15min,AgWx,bigpiney,439,29FEB2020:00:15:00,12.4,12.64,13.1,12.2,12.4,13.1,12.0,91,92,90,0.241,10.3,11.1,9.7,2.214,1.2,261,35,2.2,-0.00010,-0.00014,29.4,30.4,11,0,0,0.0,5.83,0.00,0.00
15min,AgWx,bigpiney,439,29FEB2020:00:30:00,12.1,12.64,5.1,4.6,7.9,12.3,4.5,88,92,84,0.161,5.0,10.3,1.2,5.831,4.7,227,6.6,7.1,-0.00003,-0.00003,29.4,30.4,11,0,0,0.0,5.83,0.00,0.00
15min,AgWx,bigpiney,439,29FEB2020:00:45:00,11.2,12.63,11.0,10.8,7.0,11.3,4.4,90,94,85,0.229,4.6,10.0,0.9,2.609,3.8,244,4.8,5.7,-0.00004,-0.00005,29.4,30.3,11,0,0,0.0,5.83,0.00,0.00
15min,AgWx,bigpiney,439,29FEB2020:01:00:00,10.2,12.63,4.7,4.0,6.4,11.0,4.0,87,95,83,0.158,3.5,9.9,0.4,5.152,4.9,226,6.8,7.1,-0.00003,-0.00003,29.4,30.3,11,0,0,0.0,5.83,0.00,0.00
15min,AgWx,bigpiney,439,29FEB2020:01:15:00,9.5,12.62,6.1,6.1,5.1,6.6,4.0,88,90,86,0.178,2.3,4.3,0.8,5.809,5.7,240,7.9,6.9,-0.00002,-0.00002,29.4,30.3,11,0,0,0.0,5.83,0.00,0.00
15min,AgWx,bigpiney,439,29FEB2020:01:30:00,9.0,12.61,7.7,6.5,6.3,8.5,5.2,88,92,84,0.183,3.5,6.6,1.5,0.921,2.2,271,55,5.7,-0.00006,-0.00007,29.4,30.3,11,0,0,0.0,5.83,0.00,0.00
15min,AgWx,bigpiney,439,29FEB2020:01:45:00,8.9,12.6,7.2,6.1,7.2,8.1,6.0,89,91,87,0.176,4.6,5.8,3.1,0.767,0.7,117,48,1.8,-0.00010,-0.00014,29.4,30.3,11,0,0,0.0,5.83,0.00,0.00
15min,AgWx,bigpiney,439,29FEB2020:02:00:00,8.8,12.59,4.3,3.9,5.6,7.3,3.9,87,90,86,0.156,2.6,4.9,0.5,2.214,1.4,215,19,2.9,-0.00007,-0.00010,29.4,30.3,11,0,0,0.0,5.83,0.00,0.00
15min,AgWx,bigpiney,439,29FEB2020:02:15:00,8.6,12.58,10.6,8.5,6.9,10.4,3.8,89,94,84,0.202,4.2,8.2,0.5,3.705,4.4,232,7.6,6.6,-0.00004,-0.00004,29.4,30.3,11,0,0,0.0,5.83,0.00,0.00
15min,AgWx,bigpiney,439,29FEB2020:02:30:00,8.5,12.58,7.7,8.1,7.9,12.0,5.9,87,93,82,0.197,4.9,10.1,2.1,1.513,4.2,238,9.8,6.6,-0.00004,-0.00004,29.4,30.3,11,0,0,0.0,5.83,0.00,0.00
15min,AgWx,bigpiney,439,29FEB2020:02:45:00,8.5,12.56,11.2,9.1,7.4,9.3,5.0,88,93,85,0.205,4.6,7.6,1.4,1.337,2.7,257,23,6.6,-0.00005,-0.00006,29.4,30.3,11,0,0,0.0,5.83,0.00,0.00
15min,AgWx,bigpiney,439,29FEB2020:03:00:00,8.7,12.55,8.9,8.6,10.2,12.5,8.0,88,92,83,0.192,7.4,10.5,3.9,1.776,3.1,260,25,7.4,-0.00006,-0.00006,29.4,30.3,11,0,0,0.0,5.83,0.00,0.00
15min,AgWx,bigpiney,439,29FEB2020:03:15:00,8.9,12.55,6.0,5.5,6.4,8.6,4.3,86,88,85,0.172,3.1,5.2,0.9,2.346,1.7,36,47,3.9,-0.00007,-0.00009,29.4,30.4,11,0,0,0.0,5.83,0.00,0.00
15min,AgWx,bigpiney,439,29FEB2020:03:30:00,8.8,12.54,5.3,4.8,4.7,5.7,4.0,87,88,85,0.164,1.6,2.9,0.6,0,1.1,117,49,2.9,-0.00008,-0.00011,29.4,30.4,11,0,0,0.0,5.83,0.00,0.00
15min,AgWx,bigpiney,439,29FEB2020:03:45:00,8.4,12.53,5.3,5.1,5.1,5.5,4.7,87,87,86,0.166,2.0,2.4,1.6,2.192,0.5,302,23,2.6,-0.00010,-0.00015,29.4,30.3,11,0,0,0.0,5.83,0.00,0.00
15min,AgWx,bigpiney,439,29FEB2020:04:00:00,8.0,12.53,6.4,5.8,5.4,5.9,4.5,87,88,86,0.174,2.3,3.0,1.2,0.11,1.9,285,33,4.7,-0.00006,-0.00008,29.4,30.3,11,0,0,0.0,5.83,0.00,0.00
15min,AgWx,bigpiney,439,29FEB2020:04:15:00,7.7,12.52,3.8,5.6,5.2,6.0,3.9,87,89,85,0.173,2.1,3.1,0.5,0.241,1.5,287,41,3.0,-0.00007,-0.00009,29.3,30.4,11,0,0,0.0,5.83,0.00,0.00
15min,AgWx,bigpiney,439,29FEB2020:04:30:00,7.5,12.52,3.9,3.3,4.9,6.0,2.9,87,88,85,0.153,1.9,3.3,-0.6,3.047,2.3,343,42,4.3,-0.00006,-0.00007,29.3,30.4,11,0,0,0.0,5.83,0.00,0.00
15min,AgWx,bigpiney,439,29FEB2020:04:45:00,7.1,12.51,4.1,3.4,3.1,3.4,2.3,87,88,86,0.157,0.1,0.7,-1.0,2.696,2.0,337,35,3.4,-0.00006,-0.00007,29.3,30.4,11,0,0,0.0,5.83,0.00,0.00
15min,AgWx,bigpiney,439,29FEB2020:05:00:00,6.7,12.49,5.2,4.2,3.8,4.5,2.7,88,89,85,0.163,1.1,2.0,-0.7,1.578,2.2,300,59,5.7,-0.00006,-0.00007,29.3,30.3,11,0,1,0.0,5.83,0.00,0.00
15min,AgWx,bigpiney,439,29FEB2020:05:15:00,6.4,12.49,2.7,3.4,4.7,5.5,3.2,88,89,85,0.153,1.9,2.9,-0.3,2.389,1.2,248,63,3.0,-0.00008,-0.00010,29.3,30.4,11,0,1,0.0,5.83,0.00,0.00
15min,AgWx,bigpiney,439,29FEB2020:05:30:00,6.2,12.47,5.7,5.8,4.9,5.8,3.2,88,89,86,0.176,2.1,3.3,-0.2,0.438,1.4,255,29,4.6,-0.00007,-0.00009,29.3,30.4,11,0,1,0.0,5.83,0.00,0.00
15min,AgWx,bigpiney,439,29FEB2020:05:45:00,6.0,12.48,6.7,6.4,5.4,6.4,3.1,88,90,84,0.182,2.7,3.9,-0.6,0.723,1.5,251,45,4.8,-0.00007,-0.00009,29.3,30.3,11,0,1,0.0,5.83,0.00,0.00
15min,AgWx,bigpiney,439,29FEB2020:06:00:00,5.9,12.48,7.3,6.7,6.3,6.9,5.4,89,89,87,0.183,3.7,4.3,2.3,1.688,1.4,232,27,3.0,-0.00008,-0.00010,29.3,30.4,11,0,1,0.0,5.83,0.00,0.00
15min,AgWx,bigpiney,439,29FEB2020:06:15:00,5.6,12.47,6.1,5.4,4.9,6.7,2.4,88,90,84,0.173,2.0,4.2,-1.4,0.702,1.3,203,30,3.7,-0.00008,-0.00010,29.3,30.3,11,0,1,0.0,5.83,0.00,0.00
15min,AgWx,bigpiney,439,29FEB2020:06:30:00,5.1,12.47,3.8,2.9,4.1,5.4,1.4,87,89,82,0.147,1.1,2.8,-2.7,2.981,1.8,220,21,4.3,-0.00006,-0.00008,29.3,30.3,11,0,1,0.0,5.83,0.00,0.00
15min,AgWx,bigpiney,439,29FEB2020:06:45:00,4.6,12.46,4.5,4.2,3.9,5.0,3.0,87,88,86,0.160,0.9,2.3,-0.4,1.184,2.1,278,21,3.9,-0.00005,-0.00007,29.3,30.4,11,0,1,0.0,5.83,0.00,0.00
15min,AgWx,bigpiney,439,29FEB2020:07:00:00,4.3,12.5,4.5,3.9,4.1,4.7,3.6,87,89,86,0.158,1.1,2.0,0.6,1.82,1.3,316,35,3.2,-0.00007,-0.00009,29.3,30.4,11,3,1,0.0,5.83,0.00,0.00
15min,AgWx,bigpiney,439,29FEB2020:07:15:00,4.2,12.98,2.8,2.4,3.3,4.1,2.2,87,88,85,0.146,0.2,1.2,-1.1,0.855,2.0,0.9,29,4.3,-0.00011,-0.00011,29.3,30.4,11,24,1,0.0,5.83,0.00,0.00
15min,AgWx,bigpiney,439,29FEB2020:07:30:00,4.3,15.01,3.3,2.5,2.4,3.0,1.7,86,88,85,0.147,-0.8,0.1,-1.8,1.052,1.3,248,38,2.6,-0.00006,-0.00005,29.3,30.4,11,56,1,0.0,5.83,0.00,0.00
15min,AgWx,bigpiney,439,29FEB2020:07:45:00,4.4,14.99,5.2,4.1,2.6,4.1,0.6,86,88,83,0.162,-0.6,1.3,-3.5,1.841,1.9,228,5.6,3.1,0.00001,0.00002,29.3,30.4,11,87,1,0.0,5.83,0.00,0.00
15min,AgWx,bigpiney,439,29FEB2020:08:00:00,4.5,14.98,5.4,3.5,3.9,5.1,2.5,87,88,84,0.153,0.8,2.3,-1.2,2.017,1.7,238,9.1,3.4,0.00012,0.00014,29.3,30.4,11,144,1,0.0,5.83,0.00,0.00
15min,AgWx,bigpiney,439,29FEB2020:08:15:00,5.0,15.07,6.0,3.1,3.3,6.1,1.2,85,88,82,0.151,-0.2,3.4,-3.0,1.841,2.0,249,14,3.4,0.00020,0.00023,29.3,30.3,11,189,1,0.0,5.83,0.00,0.00